Todos
Glen Innes Medical Airport YXGE Condições meteorológicas
There is no TAF data available at YXGE. Showing TAF data for YGLI (5 mi NO).
GLI Previsão da área de terminais (sem dados para YXGE)
| Date | Time (AEST) | Flight Rules | Wind Dir. | Speed | Type | Height AGL (ft) | Visibility | Remarks | ||||||
|---|---|---|---|---|---|---|---|---|---|---|---|---|---|---|
There is no METAR data available at YXGE. Showing METAR data for YGLI (5 mi NO).
Histórico recente de METAR GLI (sem dados para YXGE)
| Date | Time (AEST) | Flight Rules | Wind Dir. | Speed | Type | Height AGL (ft) | Visibility | Temp (°C) | Temp (°F) | Dew Point (°C) | Dew Point (°F) | Rel. Humid. | Pressure | Density Altitude | Remarks |
|---|---|---|---|---|---|---|---|---|---|---|---|---|---|---|---|
| 09-Mai | 18:00 | VFR | 210° | 5 kt | 10000 meters | 11° | 51° | 3° | 37° | 58% | 1025 mb | 3.318 ft | |||
| 09-Mai | 17:00 | VFR | 110° | 5 kt | 10000 meters | 16° | 60° | 1° | 33° | 36% | 1024 mb | 3.947 ft | |||
| 09-Mai | 16:00 | VFR | 130° | 5 kt | 10000 meters | 19° | 66° | 2° | 35° | 32% | 1024 mb | 4.307 ft | |||
| 09-Mai | 15:00 | VFR | 100° | 4 kt | 10000 meters | 19° | 66° | 2° | 35° | 32% | 1024 mb | 4.307 ft | |||
| 09-Mai | 14:00 | VFR | 150° | 5 kt | 10000 meters | 18° | 64° | 2° | 35° | 34% | 1024 mb | 4.187 ft | |||
| 09-Mai | 13:00 | VFR | 100° | 6 kt | 10000 meters | 18° | 64° | 3° | 37° | 37% | 1024 mb | 4.187 ft | |||
| 09-Mai | 12:00 | VFR | 100° | 8 kt | 10000 meters | 17° | 62° | 2° | 35° | 36% | 1024 mb | 4.067 ft | |||
| 09-Mai | 11:00 | VFR | 110° | 10 kt | 10000 meters | 16° | 60° | 1° | 33° | 36% | 1025 mb | 3.918 ft | |||
| 09-Mai | 10:00 | VFR | 100° | 12 kt | 10000 meters | 15° | 59° | 1° | 33° | 39% | 1025 mb | 3.798 ft | |||
| 09-Mai | 09:00 | VFR | 120° | 11 kt | 10000 meters | 12° | 53° | 3° | 37° | 54% | 1025 mb | 3.438 ft | |||
| 09-Mai | 08:00 | VFR | 120° | 6 kt | 10000 meters | 8° | 46° | 3° | 37° | 71% | 1024 mb | 2.987 ft | |||
| 09-Mai | 07:00 | VFR | 110° | 6 kt | 10000 meters | 2° | 35° | 1° | 33° | 93% | 1024 mb | 2.267 ft | |||
| 09-Mai | 06:00 | VFR | 120° | 6 kt | 10000 meters | 1° | 33° | -1° | 30° | 86% | 1023 mb | 2.177 ft | |||
| 09-Mai | 05:00 | VFR | 120° | 8 kt | 10000 meters | 2° | 35° | 0° | 32° | 87% | 1022 mb | 2.326 ft | |||
| 09-Mai | 04:00 | VFR | 90° | 8 kt | 10000 meters | 3° | 37° | 1° | 33° | 87% | 1022 mb | 2.446 ft | |||
| 09-Mai | 03:00 | VFR | 130° | 9 kt | 10000 meters | 4° | 39° | 1° | 33° | 81% | 1022 mb | 2.566 ft | |||
| 09-Mai | 02:00 | VFR | 120° | 8 kt | 10000 meters | 2° | 35° | 0° | 32° | 87% | 1022 mb | 2.326 ft | |||
| 09-Mai | 01:00 | VFR | 140° | 3 kt | 10000 meters | 0° | 32° | -1° | 30° | 93% | 1022 mb | 2.086 ft | |||
| 09-Mai | 00:00 | VFR | 100° | 7 kt | 10000 meters | 2° | 35° | 1° | 33° | 93% | 1022 mb | 2.326 ft | |||
| 08-Mai | 23:00 | VFR | 120° | 5 kt | 10000 meters | 1° | 33° | -1° | 30° | 86% | 1022 mb | 2.206 ft | |||
| 08-Mai | 22:00 | VFR | 120° | 4 kt | 10000 meters | 2° | 35° | -1° | 30° | 80% | 1023 mb | 2.297 ft | |||
| 08-Mai | 21:00 | VFR | Calm | 10000 meters | 2° | 35° | -1° | 30° | 80% | 1022 mb | 2.326 ft | ||||
| 08-Mai | 20:00 | VFR | 260° | 2 kt | 10000 meters | 5° | 41° | -1° | 30° | 65% | 1022 mb | 2.686 ft | |||
| 08-Mai | 19:00 | VFR | 250° | 5 kt | 10000 meters | 6° | 42° | -2° | 28° | 56% | 1022 mb | 2.806 ft |
Entrar
| Seu navegador não suporta. atualize seu navegador |
